Погода в Данкове

Россия / Липецкая область     53°14′46″N   39°08′03″E
темп.,
°C
ветер,
м/с
пор.,
м/с
влажн.,
%
обл.,
%
осадки,
мм/ч
давл.,
гПа
погр.,
м
29 июня, ср
ср2900:00+15св49693 0.0 1020171
03:00+12всв36800 0.0 1021109
06:00+13св37790 0.0 1022181
09:00+18всв45580 0.0 1022578
12:00+20св45490 0.0 10221512
15:00+21св33470 0.0 10211681
18:00+20ссв33560 0.0 10201642
21:00+15св337153 0.0 102030
30 июня, чт
чт3000:00+13всв22680 0.0 102010
03:00+12св00730 0.0 102010
06:00+14ссз22740 0.0 101975
09:00+19сз346329 0.0 1019654
12:00+21ссз455155 0.0 10181545
15:00+22ссз56502 0.0 10171832
18:00+20с4660100 0.0 10171317
21:00+16сз46753 0.0 101778
1 июля, пт
пт100:00+13ссз35810 0.0 101783
03:00+12ссз49780 0.0 1017149
06:00+14ссз38800 0.0 1017201
09:00+18ссв69635 0.0 1018783
12:00+19ссв79515 0.0 10191750
15:00+19ссв68462 0.0 10191958
18:00+19ссв48555 0.0 10191922
21:00+14в11730 0.0 102011
2 июля, сб
сб200:00+12с11680 0.0 102110
03:00+11ссз23680 0.0 102020
06:00+12сз35730 0.0 1021117
09:00+18с575816 0.0 1020625
12:00+21с46475 0.0 10191342
15:00+23сз46485 0.0 10171462
18:00+23зсз46605 0.0 1016661
21:00+18з379291 2.3 1015136
3 июля, вс
вс300:00+17сз4119511 1.1 1014227
03:00+16ссз48930 1.1 1014133
06:00+17ссз48910 0.0 1014227
09:00+20ссв57720 0.0 1015591
12:00+23с68580 0.0 10151357
15:00+24с57555 0.0 10151534
18:00+23с366399 0.0 10151167
21:00+19зсз1174100 0.0 101511